N8AMF Weather Reports


time (UTC)temp
C
wind
direction
speed
KPH
gust
KPH
rain 1hr
cm
rain 24hr
cm
rain mn
cm
humidity
%
barometer
mb
20260508125330 11 202 3.2 4.8 0.00 0.00 0.00 73 1011.7
20260508124828 10 190 1.6 8.0 0.00 0.00 0.00 74 1011.8
20260508124325 10 77 0.0 4.8 0.00 0.00 0.00 75 1011.7
20260508123823 10 97 3.2 4.8 0.00 0.00 0.00 74 1011.5
20260508123322 10 220 3.2 6.4 0.00 0.00 0.00 75 1011.7
20260508122817 10 71 0.0 4.8 0.00 0.00 0.00 76 1011.8
20260508122314 10 163 4.8 6.4 0.00 0.00 0.00 76 1011.7
20260508121812 10 43 3.2 3.2 0.00 0.00 0.00 77 1011.6
20260508121310 10 91 4.8 6.4 0.00 0.00 0.00 77 1011.4
20260508120807 10 219 3.2 4.8 0.00 0.00 0.00 77 1011.6
20260508120305 10 341 0.0 6.4 0.00 0.00 0.00 77 1011.5
20260508115802 10 171 1.6 4.8 0.00 0.00 0.00 77 1011.5
20260508115300 10 183 1.6 4.8 0.00 0.00 0.00 78 1011.3
20260508114756 10 180 3.2 4.8 0.00 0.00 0.00 79 1011.2
20260508114253 10 184 0.0 4.8 0.00 0.00 0.00 79 1011.0
20260508113749 10 209 1.6 3.2 0.00 0.00 0.00 79 1011.1
20260508113248 10 145 0.0 8.0 0.00 0.00 0.00 79 1011.1
20260508112744 9 187 1.6 4.8 0.00 0.00 0.00 79 1010.9
20260508112241 9 199 0.0 4.8 0.00 0.00 0.00 79 1011.0
20260508111737 9 152 1.6 3.2 0.00 0.00 0.00 79 1011.0
20260508111235 10 180 1.6 4.8 0.00 0.00 0.00 78 1010.8
20260508110733 10 63 1.6 3.2 0.00 0.00 0.00 77 1010.9
20260508110230 10 266 1.6 8.0 0.00 0.00 0.00 76 1011.0
20260508105729 10 159 1.6 4.8 0.00 0.00 0.00 74 1010.8
20260508105227 10 103 0.0 4.8 0.00 0.00 0.00 75 1010.9
20260508104724 10 54 0.0 4.8 0.00 0.00 0.00 75 1010.6
20260508104221 9 209 4.8 8.0 0.00 0.00 0.00 76 1010.8
20260508103718 9 140 0.0 4.8 0.00 0.00 0.00 76 1010.9
20260508103215 9 59 0.0 6.4 0.00 0.00 0.00 76 1010.7
20260508102712 9 353 1.6 6.4 0.00 0.00 0.00 76 1010.7
20260508102210 8 123 3.2 4.8 0.00 0.00 0.00 77 1010.7
20260508101707 8 114 1.6 4.8 0.00 0.00 0.00 77 1010.6
20260508101205 8 172 0.0 4.8 0.00 0.00 0.00 77 1010.8
20260508100702 8 138 3.2 6.4 0.00 0.00 0.00 80 1010.8
20260508100200 8 74 0.0 4.8 0.00 0.00 0.00 81 1010.8
20260508095656 8 122 3.2 3.2 0.00 0.00 0.00 82 1010.9
20260508095153 8 159 0.0 3.2 0.00 0.00 0.00 83 1010.8
20260508094650 7 197 0.0 3.2 0.00 0.00 0.00 84 1010.8
20260508094147 7 113 0.0 4.8 0.00 0.00 0.00 84 1010.7
20260508093644 7 81 1.6 4.8 0.00 0.00 0.00 84 1010.7
20260508093142 7 114 0.0 3.2 0.00 0.00 0.00 84 1010.8
20260508092639 7 64 1.6 4.8 0.00 0.00 0.00 84 1010.8
20260508092137 7 125 0.0 3.2 0.00 0.00 0.00 83 1010.9
20260508091634 7 79 1.6 8.0 0.00 0.00 0.00 83 1010.8
20260508091131 7 27 0.0 4.8 0.00 0.00 0.00 83 1011.0
20260508090629 7 164 0.0 3.2 0.00 0.00 0.00 82 1011.0
20260508090126 7 203 1.6 3.2 0.00 0.00 0.00 82 1011.0
20260508085622 7 136 1.6 4.8 0.00 0.00 0.00 82 1010.9
20260508085119 8 229 0.0 4.8 0.00 0.00 0.00 81 1011.0
20260508084616 8 100 0.0 4.8 0.00 0.00 0.00 81 1011.0
20260508084114 8 212 3.2 9.7 0.00 0.00 0.00 81 1011.1
20260508083610 8 163 3.2 4.8 0.00 0.00 0.00 81 1011.0
20260508083107 8 193 3.2 6.4 0.00 0.00 0.00 81 1011.1
20260508082603 8 148 1.6 4.8 0.00 0.00 0.00 80 1010.9
20260508082100 8 194 0.0 4.8 0.00 0.00 0.00 80 1011.1
20260508081552 8 163 4.8 6.4 0.00 0.00 0.00 80 1011.0
20260508081048 8 197 4.8 8.0 0.00 0.00 0.00 80 1011.3
20260508080546 8 150 0.0 9.7 0.00 0.00 0.00 80 1011.2
20260508080043 7 6 1.6 8.0 0.00 0.00 0.00 79 1011.2
20260508075539 7 133 3.2 4.8 0.00 0.00 0.00 79 1011.4
20260508075037 8 124 1.6 3.2 0.00 0.00 0.00 79 1011.0
20260508074535 8 233 3.2 6.4 0.00 0.00 0.00 79 1011.2
20260508074031 8 208 0.0 6.4 0.00 0.00 0.00 78 1011.2
20260508073529 8 195 0.0 3.2 0.00 0.00 0.00 78 1011.3
20260508073026 8 191 1.6 4.8 0.00 0.00 0.00 78 1011.4
20260508072522 8 145 0.0 6.4 0.00 0.00 0.00 77 1011.2
20260508072019 8 183 3.2 4.8 0.00 0.00 0.00 77 1011.3
20260508071517 8 225 1.6 4.8 0.00 0.00 0.00 77 1011.4
20260508071015 8 180 4.8 4.8 0.00 0.00 0.00 76 1011.3
20260508070512 8 77 0.0 4.8 0.00 0.00 0.00 76 1011.5
20260508070010 8 161 3.2 4.8 0.00 0.00 0.00 75 1011.2
20260508065508 8 221 3.2 14.5 0.00 0.00 0.00 75 1011.6
20260508065006 8 39 4.8 8.0 0.00 0.00 0.00 74 1011.4
20260508064503 8 292 3.2 8.0 0.00 0.00 0.00 74 1011.5
20260508064000 8 172 1.6 4.8 0.00 0.00 0.00 74 1011.2
20260508063458 8 171 3.2 6.4 0.00 0.00 0.00 74 1011.4
20260508062955 8 207 3.2 6.4 0.00 0.00 0.00 74 1011.4
20260508062453 8 121 4.8 8.0 0.00 0.00 0.00 75 1011.5
20260508061949 8 127 1.6 3.2 0.00 0.00 0.00 74 1011.4
20260508061448 8 195 0.0 3.2 0.00 0.00 0.00 74 1011.4
20260508060943 8 139 1.6 4.8 0.00 0.00 0.00 73 1011.5
20260508060441 8 228 1.6 4.8 0.00 0.00 0.00 73 1011.3
20260508055937 8 198 4.8 4.8 0.00 0.00 0.00 74 1011.4
20260508055434 8 97 3.2 4.8 0.00 0.00 0.00 74 1011.6
20260508054930 8 111 1.6 3.2 0.00 0.00 0.00 74 1011.6
20260508054428 8 162 0.0 4.8 0.00 0.00 0.00 73 1011.6
20260508053925 8 180 0.0 3.2 0.00 0.00 0.00 72 1011.7
20260508053422 8 186 3.2 4.8 0.00 0.00 0.00 72 1011.7
20260508052919 8 116 0.0 3.2 0.00 0.00 0.00 72 1011.9
20260508052416 8 115 3.2 4.8 0.00 0.00 0.00 72 1011.6
20260508051912 8 89 3.2 3.2 0.00 0.00 0.00 72 1011.9
20260508051408 8 120 0.0 4.8 0.00 0.00 0.00 72 1011.8
20260508050904 8 181 0.0 6.4 0.00 0.00 0.00 71 1011.9
20260508050401 8 207 0.0 4.8 0.00 0.00 0.00 72 1011.9
20260508045857 8 132 0.0 3.2 0.00 0.00 0.00 71 1012.1
20260508045355 8 140 0.0 4.8 0.00 0.00 0.00 71 1011.9
20260508044852 8 106 0.0 4.8 0.00 0.00 0.00 70 1011.9
20260508044349 8 139 0.0 3.2 0.00 0.00 0.00 69 1012.0
20260508043844 8 182 0.0 3.2 0.00 0.00 0.00 68 1011.9
20260508043342 9 107 1.6 4.8 0.00 0.00 0.00 67 1012.1
20260508042838 9 194 1.6 4.8 0.00 0.00 0.00 67 1011.9
20260508042337 9 162 0.0 3.2 0.00 0.00 0.00 67 1012.0
20260508041833 9 27 1.6 4.8 0.00 0.00 0.00 67 1012.0
20260508041329 9 77 0.0 4.8 0.00 0.00 0.00 67 1011.9
20260508040826 9 212 3.2 4.8 0.00 0.00 0.00 65 1011.9
20260508040324 9 127 0.0 4.8 0.00 0.00 0.00 66 1011.9
20260508035820 9 256 0.0 4.8 0.00 0.00 0.00 66 1012.0
20260508035318 10 192 3.2 6.4 0.00 0.00 0.00 65 1012.0
20260508034814 10 357 1.6 4.8 0.00 0.00 0.00 64 1012.1
20260508034312 10 0 1.6 8.0 0.00 0.00 0.00 63 1012.1
20260508033809 10 171 3.2 6.4 0.00 0.00 0.00 64 1011.9
20260508033307 10 199 1.6 6.4 0.00 0.00 0.00 64 1012.1
20260508032804 10 210 3.2 4.8 0.00 0.00 0.00 64 1012.1
20260508032301 10 216 4.8 8.0 0.00 0.00 0.00 63 1012.1
20260508031758 10 234 1.6 8.0 0.00 0.00 0.00 62 1012.2
20260508031254 10 200 3.2 6.4 0.00 0.00 0.00 63 1012.1
20260508030751 10 216 0.0 4.8 0.00 0.00 0.00 63 1012.1
20260508030248 10 219 3.2 6.4 0.00 0.00 0.00 63 1012.3
20260508025745 9 62 3.2 4.8 0.00 0.00 0.00 64 1012.1
20260508025242 9 204 4.8 8.0 0.00 0.00 0.00 64 1012.1
20260508024738 8 192 3.2 4.8 0.00 0.00 0.00 67 1012.4
20260508024235 8 92 1.6 4.8 0.00 0.00 0.00 72 1012.2
20260508023732 7 37 0.0 3.2 0.00 0.00 0.00 74 1012.1
20260508023229 7 195 0.0 4.8 0.00 0.00 0.00 75 1012.3
20260508022725 7 97 0.0 1.6 0.00 0.00 0.00 77 1012.2
20260508022222 7 149 0.0 4.8 0.00 0.00 0.00 77 1012.3
20260508021718 7 134 0.0 4.8 0.00 0.00 0.00 77 1012.1
20260508021214 7 81 0.0 3.2 0.00 0.00 0.00 77 1012.1
20260508020711 7 169 1.6 3.2 0.00 0.00 0.00 76 1012.1
20260508020208 7 180 0.0 3.2 0.00 0.00 0.00 76 1011.9
20260508015706 7 171 1.6 3.2 0.00 0.00 0.00 75 1011.9
20260508015203 7 125 3.2 3.2 0.00 0.00 0.00 75 1011.9
20260508014659 7 124 0.0 3.2 0.00 0.00 0.00 75 1012.0
20260508014155 7 203 1.6 3.2 0.00 0.00 0.00 75 1011.8
20260508013652 7 100 0.0 3.2 0.00 0.00 0.00 75 1011.7
20260508013148 7 89 0.0 3.2 0.00 0.00 0.00 74 1011.7
20260508012646 7 177 0.0 1.6 0.00 0.00 0.00 73 1011.7
20260508012143 7 164 0.0 1.6 0.00 0.00 0.00 72 1011.5
20260508011641 7 181 0.0 1.6 0.00 0.00 0.00 71 1011.8
20260508011138 8 104 0.0 3.2 0.00 0.00 0.00 69 1011.5
20260508010635 8 97 1.6 3.2 0.00 0.00 0.00 68 1011.4
20260508010133 8 116 0.0 3.2 0.00 0.00 0.00 65 1011.4
20260508005630 8 89 0.0 3.2 0.00 0.00 0.00 66 1011.4
20260508005126 8 134 0.0 3.2 0.00 0.00 0.00 65 1011.5
20260508004622 9 99 0.0 1.6 0.00 0.00 0.00 64 1011.5
20260508004119 9 116 0.0 3.2 0.00 0.00 0.00 62 1011.5
20260508003615 9 151 0.0 3.2 0.00 0.00 0.00 59 1011.5
20260508003113 10 50 0.0 1.6 0.00 0.00 0.00 58 1011.5
20260508002609 10 139 0.0 1.6 0.00 0.00 0.00 55 1011.5
20260508002107 10 135 0.0 3.2 0.00 0.00 0.00 54 1011.4
20260508001602 11 135 0.0 4.8 0.00 0.00 0.00 54 1011.3
20260508001058 11 186 0.0 3.2 0.00 0.00 0.00 54 1011.1
20260508000554 11 133 1.6 3.2 0.00 0.00 0.00 52 1011.2
20260508000052 11 224 3.2 4.8 0.00 0.00 0.00 49 1011.2
20260507235548 11 217 8.0 11.3 0.00 0.00 0.00 48 1011.2
20260507235046 11 207 1.6 8.0 0.00 0.00 0.00 48 1011.1
20260507234542 12 224 3.2 8.0 0.00 0.00 0.00 48 1011.1
20260507234039 12 249 3.2 6.4 0.00 0.00 0.00 47 1011.1
20260507233535 12 224 0.0 8.0 0.00 0.00 0.00 46 1011.2
20260507233034 12 225 4.8 12.9 0.00 0.00 0.00 46 1011.3
20260507232530 12 208 0.0 9.7 0.00 0.00 0.00 46 1011.1
20260507232028 12 203 4.8 14.5 0.00 0.00 0.00 46 1011.2
20260507231524 12 218 4.8 17.7 0.00 0.00 0.00 46 1011.0
20260507231021 12 83 4.8 12.9 0.00 0.00 0.00 47 1011.2
20260507230518 12 30 4.8 14.5 0.00 0.00 0.00 48 1011.3
20260507230014 12 61 6.4 12.9 0.00 0.00 0.00 47 1011.5
20260507225510 12 235 6.4 9.7 0.00 0.00 0.00 48 1011.4
20260507225007 12 328 4.8 12.9 0.00 0.00 0.00 48 1011.2
20260507224502 12 223 11.3 14.5 0.00 0.00 0.00 47 1011.3
20260507223958 12 216 6.4 14.5 0.00 0.00 0.00 45 1011.5
20260507223454 12 108 4.8 14.5 0.00 0.00 0.00 49 1011.5
20260507222952 12 340 4.8 8.0 0.00 0.00 0.00 49 1011.5
20260507222449 12 40 4.8 14.5 0.00 0.00 0.00 47 1011.3
20260507221945 12 221 11.3 19.3 0.00 0.00 0.00 44 1011.3
20260507221442 12 359 8.0 17.7 0.00 0.00 0.00 44 1011.3
20260507220938 12 350 3.2 29.0 0.00 0.00 0.00 44 1011.4
20260507220436 12 4 6.4 17.7 0.00 0.00 0.00 43 1011.5
20260507215932 13 130 0.0 11.3 0.00 0.00 0.00 44 1011.3
20260507215429 13 356 4.8 17.7 0.00 0.00 0.00 44 1011.3
20260507214926 13 309 1.6 14.5 0.00 0.00 0.00 42 1011.2
20260507214424 13 47 6.4 8.0 0.00 0.00 0.00 43 1011.4
20260507213919 13 35 4.8 17.7 0.00 0.00 0.00 45 1011.1
20260507213416 13 230 9.7 29.0 0.00 0.00 0.00 41 1011.3
20260507212913 13 215 12.9 19.3 0.00 0.00 0.00 41 1011.1
20260507212409 13 183 4.8 19.3 0.00 0.00 0.00 41 1011.3
20260507211906 13 1 8.0 22.5 0.00 0.00 0.00 42 1011.2
20260507211402 13 207 6.4 19.3 0.00 0.00 0.00 40 1011.4
20260507210859 13 221 4.8 19.3 0.00 0.00 0.00 43 1011.0
20260507210356 13 356 4.8 17.7 0.00 0.00 0.00 44 1011.0
20260507205853 13 3 8.0 25.7 0.00 0.00 0.00 46 1011.2
20260507205349 13 217 3.2 19.3 0.00 0.00 0.00 47 1011.1
20260507204846 13 231 6.4 30.6 0.00 0.00 0.00 47 1011.0
20260507204343 14 339 3.2 9.7 0.00 0.00 0.00 50 1011.1
20260507203841 14 231 4.8 14.5 0.00 0.00 0.00 49 1011.2
20260507203339 14 354 4.8 12.9 0.00 0.00 0.00 50 1011.1
20260507202834 13 178 17.7 17.7 0.00 0.00 0.00 47 1011.1
20260507202331 13 335 4.8 14.5 0.00 0.00 0.00 49 1011.0
20260507201826 13 223 8.0 20.9 0.00 0.00 0.00 49 1011.1
20260507201322 13 94 3.2 12.9 0.00 0.00 0.00 57 1011.2
20260507200819 12 345 1.6 11.3 0.00 0.00 0.00 59 1011.2
20260507200315 12 202 4.8 14.5 0.00 0.00 0.00 57 1011.2
20260507195811 11 359 4.8 12.9 0.00 0.00 0.00 56 1011.1
20260507195309 11 108 3.2 14.5 0.00 0.00 0.00 56 1011.2
20260507194806 11 225 6.4 14.5 0.00 0.00 0.00 57 1011.3
20260507194302 12 332 3.2 9.7 0.00 0.00 0.00 58 1011.1
20260507193758 12 342 3.2 6.4 0.00 0.00 0.00 58 1011.4
20260507193255 12 310 1.6 6.4 0.00 0.00 0.00 58 1011.4
20260507192751 12 36 3.2 4.8 0.00 0.00 0.00 60 1011.3
20260507192248 11 355 6.4 16.1 0.00 0.00 0.00 61 1011.5
20260507191744 11 276 4.8 12.9 0.00 0.00 0.00 61 1011.4
20260507191241 11 232 6.4 22.5 0.00 0.00 0.00 58 1011.4
20260507190738 11 43 0.0 16.1 0.00 0.00 0.00 57 1011.4
20260507190237 12 256 0.0 16.1 0.00 0.00 0.00 55 1011.3
20260507185735 12 220 8.0 11.3 0.00 0.00 0.00 55 1011.4
20260507185231 12 243 4.8 14.5 0.00 0.00 0.00 54 1011.3
20260507184729 13 26 1.6 12.9 0.00 0.00 0.00 53 1011.4
20260507184227 13 349 6.4 9.7 0.00 0.00 0.00 52 1011.5
20260507183723 13 12 4.8 20.9 0.00 0.00 0.00 53 1011.3
20260507183220 13 9 4.8 11.3 0.00 0.00 0.00 52 1011.4
20260507182717 13 294 3.2 11.3 0.00 0.00 0.00 53 1011.4
20260507182212 14 78 3.2 9.7 0.00 0.00 0.00 54 1011.4
20260507181709 13 300 8.0 11.3 0.00 0.00 0.00 53 1011.3
20260507181206 13 293 4.8 14.5 0.00 0.00 0.00 54 1011.5
20260507180702 12 215 12.9 17.7 0.00 0.00 0.00 52 1011.5
20260507180159 13 141 6.4 20.9 0.00 0.00 0.00 55 1011.5
20260507175655 13 192 1.6 12.9 0.00 0.00 0.00 52 1011.4
20260507175147 13 21 4.8 11.3 0.00 0.00 0.00 56 1011.4
20260507174644 13 205 6.4 8.0 0.00 0.00 0.00 52 1011.7
20260507174142 13 354 6.4 11.3 0.00 0.00 0.00 52 1011.7
20260507173638 12 155 3.2 16.1 0.00 0.00 0.00 51 1011.6
20260507173136 13 155 4.8 17.7 0.00 0.00 0.00 50 1011.7
20260507172631 12 329 4.8 14.5 0.00 0.00 0.00 53 1011.7
20260507172124 12 225 0.0 20.9 0.00 0.00 0.00 55 1011.9
20260507171619 12 331 3.2 24.1 0.00 0.00 0.00 57 1011.6
20260507171116 13 336 6.4 12.9 0.00 0.00 0.00 57 1011.7
20260507170613 13 4 6.4 14.5 0.00 0.00 0.00 58 1011.8
20260507170110 13 217 6.4 12.9 0.00 0.00 0.00 56 1011.9
20260507165605 13 350 8.0 17.7 0.00 0.00 0.00 57 1011.7
20260507165102 13 31 6.4 11.3 0.00 0.00 0.00 58 1011.7
20260507164558 12 241 4.8 14.5 0.00 0.00 0.00 58 1011.6
20260507164055 12 228 12.9 19.3 0.00 0.00 0.00 53 1011.7
20260507163553 13 356 8.0 12.9 0.00 0.00 0.00 53 1011.6
20260507163051 13 39 11.3 17.7 0.00 0.00 0.00 50 1011.6
20260507162550 12 4 8.0 11.3 0.00 0.00 0.00 53 1011.5
20260507162048 13 349 9.7 11.3 0.00 0.00 0.00 52 1011.6
20260507161544 13 200 6.4 12.9 0.00 0.00 0.00 46 1011.8
20260507161041 13 213 4.8 16.1 0.00 0.00 0.00 47 1011.6
20260507160537 13 184 4.8 9.7 0.00 0.00 0.00 52 1011.7
20260507160033 13 350 3.2 6.4 0.00 0.00 0.00 52 1011.8
20260507155528 13 218 3.2 9.7 0.00 0.00 0.00 50 1011.7
20260507155026 13 28 6.4 9.7 0.00 0.00 0.00 53 1011.8
20260507154523 13 241 4.8 9.7 0.00 0.00 0.00 48 1012.0
20260507154020 13 232 6.4 11.3 0.00 0.00 0.00 53 1011.8
20260507153517 13 54 6.4 16.1 0.00 0.00 0.00 54 1011.8
20260507153013 13 39 8.0 11.3 0.00 0.00 0.00 52 1012.0
20260507152509 13 259 9.7 20.9 0.00 0.00 0.00 53 1011.9
20260507152005 13 62 4.8 12.9 0.00 0.00 0.00 57 1011.9
20260507151502 13 69 6.4 11.3 0.00 0.00 0.00 59 1012.0
20260507150959 13 347 1.6 14.5 0.00 0.00 0.00 58 1011.9
20260507150455 13 344 8.0 11.3 0.00 0.00 0.00 59 1011.8
20260507145951 12 119 3.2 11.3 0.00 0.00 0.00 63 1012.0
20260507145447 12 212 4.8 14.5 0.00 0.00 0.00 63 1011.9
20260507144945 12 14 8.0 11.3 0.00 0.00 0.00 63 1011.9
20260507144441 12 352 4.8 8.0 0.00 0.00 0.00 66 1011.9
20260507143938 12 98 4.8 11.3 0.00 0.00 0.00 66 1011.9
20260507143436 11 10 4.8 6.4 0.00 0.00 0.00 69 1011.7
20260507142932 12 125 4.8 8.0 0.00 0.00 0.00 65 1011.8
20260507142428 12 54 3.2 11.3 0.00 0.00 0.00 67 1011.9
20260507141926 12 359 6.4 11.3 0.00 0.00 0.00 68 1011.9
20260507141421 12 4 6.4 11.3 0.00 0.00 0.00 68 1011.8
20260507140918 11 104 3.2 8.0 0.00 0.00 0.00 67 1011.8
20260507140415 11 14 4.8 8.0 0.00 0.00 0.00 67 1011.9
20260507135913 12 220 3.2 8.0 0.00 0.00 0.00 68 1012.1
20260507135409 11 195 4.8 8.0 0.00 0.00 0.00 70 1012.0
20260507134907 10 89 0.0 9.7 0.00 0.00 0.00 70 1012.1
20260507134402 11 101 1.6 12.9 0.00 0.00 0.00 72 1012.1
20260507133859 11 207 3.2 9.7 0.00 0.00 0.00 71 1012.3
20260507133355 11 215 4.8 8.0 0.00 0.00 0.00 71 1012.2
20260507132853 11 119 3.2 9.7 0.00 0.00 0.00 71 1012.2
20260507132349 11 63 0.0 4.8 0.00 0.00 0.00 71 1012.1
20260507131847 11 199 1.6 9.7 0.00 0.00 0.00 69 1012.2
20260507131343 11 88 3.2 4.8 0.00 0.00 0.00 73 1012.1
20260507130840 10 101 0.0 4.8 0.00 0.00 0.00 75 1012.3
20260507130337 10 185 1.6 3.2 0.00 0.00 0.00 74 1012.4
20260507125836 9 52 0.0 3.2 0.00 0.00 0.00 75 1012.3